Time,TemperatureF,DewpointF,PressureIn,WindDirection,WindDirectionDegrees,WindSpeedMPH,WindSpeedGustMPH,Humidity,HourlyPrecipIn,Conditions,Clouds,dailyrainin,SolarRadiationWatts/m^2,SoftwareType,DateUTC
2013-05-13 00:01:00,41.5,36.4,29.48,SW,236,0.0,0.0,82,0.00,RA,,0.00,0.0,WeatherDisplay:10.37,2013-05-13 08:01:00,
2013-05-13 00:06:00,41.4,36.3,29.48,SW,236,0.0,0.0,82,0.00,RA,,0.00,0.0,WeatherDisplay:10.37,2013-05-13 08:06:00,
2013-05-13 00:11:00,41.3,36.5,29.48,SW,236,0.0,0.0,83,0.00,OVC,,0.00,0.0,WeatherDisplay:10.37,2013-05-13 08:11:00,
2013-05-13 00:16:00,41.3,36.5,29.47,SW,236,0.0,0.0,83,0.00,OVC,,0.00,0.0,WeatherDisplay:10.37,2013-05-13 08:16:00,
2013-05-13 00:21:00,41.2,36.4,29.47,SW,236,0.0,0.0,83,0.00,OVC,,0.00,0.0,WeatherDisplay:10.37,2013-05-13 08:21:00,
2013-05-13 00:26:00,41.1,36.0,29.48,SW,236,0.0,0.0,82,0.00,OVC,,0.00,0.0,WeatherDisplay:10.37,2013-05-13 08:26:00,
2013-05-13 00:31:00,40.9,36.1,29.47,SW,236,0.0,0.0,83,0.00,OVC,,0.00,0.0,WeatherDisplay:10.37,2013-05-13 08:31:00,
2013-05-13 00:36:00,40.8,36.3,29.47,SW,236,0.0,0.0,84,0.00,OVC,,0.00,0.0,WeatherDisplay:10.37,2013-05-13 08:36:00,
2013-05-13 00:41:00,40.6,35.8,29.47,SW,236,0.0,0.0,83,0.00,OVC,,0.00,0.0,WeatherDisplay:10.37,2013-05-13 08:41:00,
2013-05-13 00:46:00,40.4,35.6,29.47,SW,236,0.0,0.0,83,0.00,OVC,,0.00,0.0,WeatherDisplay:10.37,2013-05-13 08:46:00,
2013-05-13 00:51:00,40.2,35.8,29.47,SW,236,0.0,0.0,84,0.00,OVC,,0.00,0.0,WeatherDisplay:10.37,2013-05-13 08:51:00,
2013-05-13 00:56:00,39.9,35.5,29.47,SW,236,0.0,0.0,84,0.00,OVC,,0.00,0.0,WeatherDisplay:10.37,2013-05-13 08:56:00,
2013-05-13 01:01:00,39.7,35.3,29.47,SW,236,0.0,0.0,84,0.00,BKN,,0.00,0.0,WeatherDisplay:10.37,2013-05-13 09:01:00,
2013-05-13 01:06:00,39.5,35.7,29.47,SW,236,0.0,0.0,86,0.00,BKN,,0.00,0.0,WeatherDisplay:10.37,2013-05-13 09:06:00,
2013-05-13 01:11:00,39.4,35.9,29.47,SW,236,0.0,0.0,87,0.00,BKN,,0.00,0.0,WeatherDisplay:10.37,2013-05-13 09:11:00,
2013-05-13 01:16:00,39.2,35.7,29.47,SW,236,0.0,0.0,87,0.00,BKN,,0.00,0.0,WeatherDisplay:10.37,2013-05-13 09:16:00,
2013-05-13 01:21:00,39.1,35.8,29.47,SW,236,0.0,0.0,88,0.00,BKN,,0.00,0.0,WeatherDisplay:10.37,2013-05-13 09:21:00,
2013-05-13 01:26:00,38.9,35.6,29.47,SW,236,0.0,0.0,88,0.00,BKN,,0.00,0.0,WeatherDisplay:10.37,2013-05-13 09:26:00,
2013-05-13 01:31:00,38.8,35.6,29.47,SW,236,0.0,0.0,88,0.00,BKN,,0.00,0.0,WeatherDisplay:10.37,2013-05-13 09:31:00,
2013-05-13 01:36:00,38.6,35.4,29.47,SW,236,0.0,0.0,88,0.00,BKN,,0.00,0.0,WeatherDisplay:10.37,2013-05-13 09:36:00,
2013-05-13 01:41:00,38.5,35.3,29.47,SW,236,0.0,0.0,88,0.00,BKN,,0.00,0.0,WeatherDisplay:10.37,2013-05-13 09:41:00,
2013-05-13 01:46:00,38.3,35.1,29.47,SW,236,0.0,0.0,88,0.00,BKN,,0.00,0.0,WeatherDisplay:10.37,2013-05-13 09:46:00,
2013-05-13 01:51:00,38.1,34.9,29.47,SW,236,0.0,0.0,88,0.00,BKN,,0.00,0.0,WeatherDisplay:10.37,2013-05-13 09:51:00,
2013-05-13 01:56:00,37.9,34.7,29.47,SW,236,0.0,0.0,88,0.00,BKN,,0.00,0.0,WeatherDisplay:10.37,2013-05-13 09:56:00,
2013-05-13 02:01:00,37.8,34.8,29.47,SW,236,0.0,0.0,89,0.00,SCT,,0.00,0.0,WeatherDisplay:10.37,2013-05-13 10:01:00,
2013-05-13 02:06:00,37.7,34.8,29.47,SW,236,0.0,0.0,89,0.00,SCT,,0.00,0.0,WeatherDisplay:10.37,2013-05-13 10:06:00,
2013-05-13 02:11:00,37.5,34.6,29.47,SW,236,0.0,0.0,89,0.00,SCT,,0.00,0.0,WeatherDisplay:10.37,2013-05-13 10:11:00,
2013-05-13 02:16:00,37.4,34.5,29.47,SW,236,0.0,0.0,89,0.00,SCT,,0.00,0.0,WeatherDisplay:10.37,2013-05-13 10:16:00,
2013-05-13 02:21:00,37.3,34.6,29.47,SW,236,0.0,0.0,90,0.00,SCT,,0.00,0.0,WeatherDisplay:10.37,2013-05-13 10:21:00,
2013-05-13 02:26:00,37.2,34.5,29.46,SW,236,0.0,0.0,90,0.00,SCT,,0.00,0.0,WeatherDisplay:10.37,2013-05-13 10:26:00,
2013-05-13 02:31:00,37.1,34.4,29.46,SW,236,0.0,0.0,90,0.00,SCT,,0.00,0.0,WeatherDisplay:10.37,2013-05-13 10:31:00,
2013-05-13 02:36:00,36.9,34.2,29.46,SW,236,0.0,0.0,90,0.00,SCT,,0.00,0.0,WeatherDisplay:10.37,2013-05-13 10:36:00,
2013-05-13 02:41:00,36.8,34.1,29.46,SW,236,0.0,0.0,90,0.00,SCT,,0.00,0.0,WeatherDisplay:10.37,2013-05-13 10:41:00,
2013-05-13 02:46:00,36.6,33.9,29.46,SW,236,0.0,0.0,90,0.00,SCT,,0.00,0.0,WeatherDisplay:10.37,2013-05-13 10:46:00,
2013-05-13 02:51:00,36.4,33.7,29.46,SW,236,0.0,0.0,90,0.00,SCT,,0.00,0.0,WeatherDisplay:10.37,2013-05-13 10:51:00,
2013-05-13 02:56:00,36.3,33.6,29.46,SW,236,0.0,0.0,90,0.00,SCT,,0.00,0.0,WeatherDisplay:10.37,2013-05-13 10:56:00,
2013-05-13 03:01:00,36.2,33.5,29.45,SW,236,0.0,0.0,90,0.00,FEW,,0.00,0.0,WeatherDisplay:10.37,2013-05-13 11:01:00,
2013-05-13 03:06:00,36.0,33.6,29.45,SW,236,0.0,0.0,91,0.00,FEW,,0.00,0.0,WeatherDisplay:10.37,2013-05-13 11:06:00,
2013-05-13 03:11:00,35.9,33.5,29.45,SW,236,0.0,0.0,91,0.00,FEW,,0.00,0.0,WeatherDisplay:10.37,2013-05-13 11:11:00,
2013-05-13 03:16:00,35.8,33.4,29.45,SW,236,0.0,0.0,91,0.00,FEW,,0.00,0.0,WeatherDisplay:10.37,2013-05-13 11:16:00,
2013-05-13 03:21:00,35.8,33.4,29.45,SW,236,0.0,0.0,91,0.00,FEW,,0.00,0.0,WeatherDisplay:10.37,2013-05-13 11:21:00,
2013-05-13 03:26:00,35.7,33.6,29.45,SW,236,0.0,0.0,92,0.00,FEW,,0.00,0.0,WeatherDisplay:10.37,2013-05-13 11:26:00,
2013-05-13 03:31:00,35.7,33.6,29.45,SW,236,0.0,0.0,92,0.00,FEW,,0.00,0.0,WeatherDisplay:10.37,2013-05-13 11:31:00,
2013-05-13 03:36:00,35.7,33.6,29.45,SW,236,0.0,0.0,92,0.00,FEW,,0.00,0.0,WeatherDisplay:10.37,2013-05-13 11:36:00,
2013-05-13 03:41:00,35.7,33.6,29.45,SW,236,0.0,0.0,92,0.00,FEW,,0.00,0.0,WeatherDisplay:10.37,2013-05-13 11:41:00,
2013-05-13 03:46:00,35.7,33.6,29.45,SW,236,0.0,0.0,92,0.00,FEW,,0.00,0.0,WeatherDisplay:10.37,2013-05-13 11:46:00,
2013-05-13 03:51:00,35.8,33.7,29.45,SW,236,0.0,0.0,92,0.00,FEW,,0.00,0.0,WeatherDisplay:10.37,2013-05-13 11:51:00,
2013-05-13 03:56:00,35.9,33.8,29.45,SW,236,0.0,0.0,92,0.00,FEW,,0.00,0.0,WeatherDisplay:10.37,2013-05-13 11:56:00,
2013-05-13 04:01:00,35.9,33.8,29.44,SW,236,0.0,0.0,92,0.00,BKN,,0.00,0.0,WeatherDisplay:10.37,2013-05-13 12:01:00,
2013-05-13 04:06:00,36.0,33.9,29.44,SW,236,0.0,0.0,92,0.00,BKN,,0.00,0.0,WeatherDisplay:10.37,2013-05-13 12:06:00,
2013-05-13 04:11:00,36.1,34.3,29.45,SW,236,1.2,0.0,93,0.00,BKN,,0.00,0.0,WeatherDisplay:10.37,2013-05-13 12:11:00,
2013-05-13 04:16:00,36.1,34.3,29.44,SW,236,0.0,0.0,93,0.00,BKN,,0.00,0.0,WeatherDisplay:10.37,2013-05-13 12:16:00,
2013-05-13 04:21:00,36.2,34.4,29.44,SW,236,0.0,0.0,93,0.00,BKN,,0.00,0.0,WeatherDisplay:10.37,2013-05-13 12:21:00,
2013-05-13 04:26:00,36.4,34.8,29.44,SW,236,0.0,0.0,94,0.00,BKN,,0.00,0.0,WeatherDisplay:10.37,2013-05-13 12:26:00,
2013-05-13 04:31:00,36.6,35.0,29.44,SW,236,0.0,0.0,94,0.00,SCT,,0.00,0.0,WeatherDisplay:10.37,2013-05-13 12:31:00,
2013-05-13 04:36:00,36.8,35.2,29.44,SW,236,0.0,0.0,94,0.00,SCT,,0.00,0.0,WeatherDisplay:10.37,2013-05-13 12:36:00,
2013-05-13 04:41:00,36.9,35.3,29.44,SW,236,0.0,0.0,94,0.00,SCT,,0.00,0.0,WeatherDisplay:10.37,2013-05-13 12:41:00,
2013-05-13 04:46:00,36.9,35.3,29.44,SW,236,0.0,0.0,94,0.00,SCT,,0.00,0.0,WeatherDisplay:10.37,2013-05-13 12:46:00,
2013-05-13 04:51:00,36.8,35.2,29.44,SW,236,0.0,0.0,94,0.00,SCT,,0.00,0.0,WeatherDisplay:10.37,2013-05-13 12:51:00,
2013-05-13 04:56:00,36.7,34.9,29.44,SW,236,0.0,0.0,93,0.00,SCT,,0.00,0.0,WeatherDisplay:10.37,2013-05-13 12:56:00,
2013-05-13 05:01:00,36.5,34.7,29.44,SW,236,0.0,0.0,93,0.00,SCT,,0.00,0.0,WeatherDisplay:10.37,2013-05-13 13:01:00,
2013-05-13 05:06:00,36.4,34.6,29.44,SW,236,0.0,0.0,93,0.00,SCT,,0.00,0.0,WeatherDisplay:10.37,2013-05-13 13:06:00,
2013-05-13 05:12:00,36.2,34.4,29.44,SW,236,0.0,0.0,93,0.00,SCT,,0.00,0.0,WeatherDisplay:10.37,2013-05-13 13:12:00,
2013-05-13 05:17:00,36.1,34.3,29.44,SW,236,0.0,0.0,93,0.00,SCT,,0.00,0.0,WeatherDisplay:10.37,2013-05-13 13:17:00,
2013-05-13 05:22:00,36.0,34.2,29.44,SW,236,0.0,0.0,93,0.00,SCT,,0.00,0.0,WeatherDisplay:10.37,2013-05-13 13:22:00,
2013-05-13 05:27:00,35.9,34.1,29.43,SW,236,0.0,0.0,93,0.00,SCT,,0.00,0.0,WeatherDisplay:10.37,2013-05-13 13:27:00,
2013-05-13 05:32:00,35.9,34.1,29.43,SW,236,0.0,0.0,93,0.00,SCT,,0.00,0.0,WeatherDisplay:10.37,2013-05-13 13:32:00,
2013-05-13 05:37:00,35.7,33.9,29.43,SW,236,0.0,0.0,93,0.00,SCT,,0.00,0.0,WeatherDisplay:10.37,2013-05-13 13:37:00,
2013-05-13 05:42:00,35.7,33.9,29.43,SW,236,0.0,0.0,93,0.00,SCT,,0.00,5.0,WeatherDisplay:10.37,2013-05-13 13:42:00,
2013-05-13 05:47:00,35.6,33.8,29.43,SW,236,0.0,0.0,93,0.00,SCT,,0.00,7.0,WeatherDisplay:10.37,2013-05-13 13:47:00,
2013-05-13 05:52:00,35.5,33.7,29.43,SW,236,0.0,0.0,93,0.00,SCT,,0.00,9.0,WeatherDisplay:10.37,2013-05-13 13:52:00,
2013-05-13 05:57:00,35.4,33.6,29.43,SW,236,0.0,0.0,93,0.00,SCT,,0.00,12.0,WeatherDisplay:10.37,2013-05-13 13:57:00,
2013-05-13 06:02:00,35.3,33.5,29.43,SW,236,0.0,0.0,93,0.00,SCT,,0.00,16.0,WeatherDisplay:10.37,2013-05-13 14:02:00,
2013-05-13 06:05:00,35.3,33.5,29.43,SW,236,0.0,0.0,93,0.00,SCT,,0.00,18.0,WeatherDisplay:10.37,2013-05-13 14:05:00,
2013-05-13 06:06:00,35.3,33.5,29.43,SW,236,0.0,0.0,93,0.00,SCT,,0.00,19.0,WeatherDisplay:10.37,2013-05-13 14:06:00,
2013-05-13 06:11:00,35.3,33.5,29.44,SW,236,0.0,0.0,93,0.00,SCT,,0.00,21.0,WeatherDisplay:10.37,2013-05-13 14:11:00,
2013-05-13 06:16:00,35.3,33.5,29.43,SW,236,0.0,0.0,93,0.00,SCT,,0.00,23.0,WeatherDisplay:10.37,2013-05-13 14:16:00,
2013-05-13 06:21:00,35.3,33.7,29.43,SW,236,0.0,0.0,94,0.00,SCT,,0.00,25.0,WeatherDisplay:10.37,2013-05-13 14:21:00,
2013-05-13 06:26:00,35.4,33.8,29.43,SW,236,0.0,0.0,94,0.00,SCT,,0.00,26.0,WeatherDisplay:10.37,2013-05-13 14:26:00,
2013-05-13 06:31:00,35.5,33.9,29.43,SW,236,0.0,0.0,94,0.00,OVC,,0.00,26.0,WeatherDisplay:10.37,2013-05-13 14:31:00,
2013-05-13 06:36:00,35.5,33.9,29.43,SW,236,0.0,0.0,94,0.00,OVC,,0.00,28.0,WeatherDisplay:10.37,2013-05-13 14:36:00,
2013-05-13 06:41:00,35.4,33.8,29.43,SW,236,0.0,0.0,94,0.00,OVC,,0.00,30.0,WeatherDisplay:10.37,2013-05-13 14:41:00,
2013-05-13 06:46:00,35.4,33.8,29.43,SW,236,0.0,0.0,94,0.00,OVC,,0.00,28.0,WeatherDisplay:10.37,2013-05-13 14:46:00,
2013-05-13 06:51:00,35.3,33.7,29.43,SW,236,0.0,0.0,94,0.00,OVC,,0.00,30.0,WeatherDisplay:10.37,2013-05-13 14:51:00,
2013-05-13 06:56:00,35.3,33.5,29.43,SW,236,0.0,0.0,93,0.00,OVC,,0.00,30.0,WeatherDisplay:10.37,2013-05-13 14:56:00,
2013-05-13 07:01:00,35.3,33.5,29.43,SW,236,0.0,0.0,93,0.00,SCT,,0.00,37.0,WeatherDisplay:10.37,2013-05-13 15:01:00,
2013-05-13 07:06:00,35.3,33.7,29.43,SW,236,0.0,0.0,94,0.00,SCT,,0.00,40.0,WeatherDisplay:10.37,2013-05-13 15:06:00,
2013-05-13 07:11:00,35.3,33.7,29.43,SW,236,0.0,0.0,94,0.00,SCT,,0.00,53.0,WeatherDisplay:10.37,2013-05-13 15:11:00,
2013-05-13 07:16:00,35.5,33.9,29.43,SW,236,0.0,0.0,94,0.00,SCT,,0.00,70.0,WeatherDisplay:10.37,2013-05-13 15:16:00,
2013-05-13 07:21:00,35.7,34.4,29.43,SW,236,0.0,0.0,95,0.00,SCT,,0.00,84.0,WeatherDisplay:10.37,2013-05-13 15:21:00,
2013-05-13 07:26:00,36.0,34.7,29.43,SW,236,0.0,0.0,95,0.00,SCT,,0.00,97.0,WeatherDisplay:10.37,2013-05-13 15:26:00,
2013-05-13 07:31:00,36.3,35.0,29.43,SW,236,0.0,0.0,95,0.00,SCT,,0.00,130.0,WeatherDisplay:10.37,2013-05-13 15:31:00,
2013-05-13 07:36:00,36.7,35.4,29.43,SW,236,0.0,0.0,95,0.00,SCT,,0.00,104.0,WeatherDisplay:10.37,2013-05-13 15:36:00,
2013-05-13 07:41:00,37.1,36.1,29.43,SW,236,0.0,0.0,96,0.00,SCT,,0.00,134.0,WeatherDisplay:10.37,2013-05-13 15:41:00,
2013-05-13 07:46:00,37.5,36.5,29.43,SW,236,0.0,0.0,96,0.00,SCT,,0.00,181.0,WeatherDisplay:10.37,2013-05-13 15:46:00,
2013-05-13 07:51:00,38.2,37.2,29.43,SW,236,0.0,0.0,96,0.00,SCT,,0.00,178.0,WeatherDisplay:10.37,2013-05-13 15:51:00,
2013-05-13 07:56:00,39.2,38.4,29.43,SW,236,0.0,0.0,97,0.00,SCT,,0.00,258.0,WeatherDisplay:10.37,2013-05-13 15:56:00,
2013-05-13 08:01:00,40.3,39.5,29.43,SW,236,0.0,0.0,97,0.00,OVC,,0.00,213.0,WeatherDisplay:10.37,2013-05-13 16:01:00,
2013-05-13 08:06:00,41.1,40.3,29.43,SW,236,0.0,0.0,97,0.00,OVC,,0.00,313.0,WeatherDisplay:10.37,2013-05-13 16:06:00,
2013-05-13 08:11:00,42.0,41.2,29.43,SW,236,1.2,1.2,97,0.00,OVC,,0.00,301.0,WeatherDisplay:10.37,2013-05-13 16:11:00,
2013-05-13 08:16:00,43.1,42.3,29.43,SW,236,0.0,0.2,97,0.00,OVC,,0.00,193.0,WeatherDisplay:10.37,2013-05-13 16:16:00,
2013-05-13 08:21:00,43.7,42.1,29.43,WNW,303,2.3,2.3,94,0.00,OVC,,0.00,148.0,WeatherDisplay:10.37,2013-05-13 16:21:00,
2013-05-13 08:26:00,44.2,41.7,29.43,WNW,303,1.2,1.2,91,0.00,OVC,,0.00,153.0,WeatherDisplay:10.37,2013-05-13 16:26:00,
2013-05-13 08:31:00,44.4,41.4,29.43,WNW,303,2.0,2.0,89,0.00,OVC,,0.00,151.0,WeatherDisplay:10.37,2013-05-13 16:31:00,
2013-05-13 08:36:00,44.6,40.7,29.43,NW,306,2.3,2.3,86,0.00,OVC,,0.00,155.0,WeatherDisplay:10.37,2013-05-13 16:36:00,
2013-05-13 08:41:00,44.7,40.5,29.43,NW,306,0.0,0.0,85,0.00,OVC,,0.00,156.0,WeatherDisplay:10.37,2013-05-13 16:41:00,
2013-05-13 08:46:00,44.9,40.4,29.43,NW,306,1.2,1.2,84,0.00,OVC,,0.00,160.0,WeatherDisplay:10.37,2013-05-13 16:46:00,
2013-05-13 08:51:00,45.1,40.6,29.43,NW,306,0.0,0.0,84,0.00,OVC,,0.00,163.0,WeatherDisplay:10.37,2013-05-13 16:51:00,
2013-05-13 08:56:00,45.2,40.3,29.43,NW,306,1.2,1.2,83,0.00,OVC,,0.00,169.0,WeatherDisplay:10.37,2013-05-13 16:56:00,
2013-05-13 09:01:00,45.3,40.4,29.43,NW,306,1.2,0.0,83,0.00,OVC,,0.00,167.0,WeatherDisplay:10.37,2013-05-13 17:01:00,
2013-05-13 09:06:00,45.4,40.5,29.43,NW,306,2.3,2.3,83,0.00,OVC,,0.00,183.0,WeatherDisplay:10.37,2013-05-13 17:06:00,
2013-05-13 09:11:00,45.6,41.0,29.42,NW,306,1.0,1.0,84,0.00,OVC,,0.00,190.0,WeatherDisplay:10.37,2013-05-13 17:11:00,
2013-05-13 09:16:00,45.9,41.9,29.43,NW,306,3.5,3.5,86,0.00,OVC,,0.00,202.0,WeatherDisplay:10.37,2013-05-13 17:16:00,
2013-05-13 09:21:00,46.2,42.2,29.42,ESE,112,0.0,0.1,86,0.00,OVC,,0.00,195.0,WeatherDisplay:10.37,2013-05-13 17:21:00,
2013-05-13 09:26:00,46.3,42.3,29.43,ESE,111,2.3,2.3,86,0.00,OVC,,0.00,185.0,WeatherDisplay:10.37,2013-05-13 17:26:00,
2013-05-13 09:31:00,46.3,42.3,29.43,ESE,107,3.5,3.5,86,0.00,OVC,,0.00,202.0,WeatherDisplay:10.37,2013-05-13 17:31:00,
2013-05-13 09:36:00,46.3,42.3,29.43,ESE,103,3.5,3.5,86,0.00,OVC,,0.00,206.0,WeatherDisplay:10.37,2013-05-13 17:36:00,
2013-05-13 09:41:00,46.4,42.4,29.42,East,79,3.0,3.0,86,0.00,OVC,,0.00,155.0,WeatherDisplay:10.37,2013-05-13 17:41:00,
2013-05-13 09:46:00,46.4,42.4,29.43,NE,53,3.5,3.5,86,0.00,OVC,,0.00,135.0,WeatherDisplay:10.37,2013-05-13 17:46:00,
2013-05-13 09:51:00,46.4,42.1,29.42,ENE,76,2.3,0.0,85,0.00,OVC,,0.00,137.0,WeatherDisplay:10.37,2013-05-13 17:51:00,
2013-05-13 09:56:00,46.4,42.1,29.42,ENE,76,1.2,0.0,85,0.00,OVC,,0.00,178.0,WeatherDisplay:10.37,2013-05-13 17:56:00,
2013-05-13 10:01:00,46.4,42.1,29.42,ENE,77,2.3,2.3,85,0.00,OVC,,0.00,206.0,WeatherDisplay:10.37,2013-05-13 18:01:00,
2013-05-13 10:06:00,46.5,41.9,29.42,ENE,77,1.2,1.2,84,0.00,OVC,,0.00,206.0,WeatherDisplay:10.37,2013-05-13 18:06:00,
2013-05-13 10:11:00,46.6,42.0,29.42,ENE,77,1.2,1.2,84,0.00,OVC,,0.00,169.0,WeatherDisplay:10.37,2013-05-13 18:11:00,
2013-05-13 10:16:00,46.7,42.1,29.42,ESE,108,2.3,2.3,84,0.00,OVC,,0.00,174.0,WeatherDisplay:10.37,2013-05-13 18:16:00,
2013-05-13 10:21:00,46.7,42.1,29.42,ESE,103,1.2,0.0,84,0.00,OVC,,0.00,214.0,WeatherDisplay:10.37,2013-05-13 18:21:00,
2013-05-13 10:26:00,46.9,42.3,29.42,NE,49,2.3,2.3,84,0.00,OVC,,0.00,265.0,WeatherDisplay:10.37,2013-05-13 18:26:00,
2013-05-13 10:31:00,47.1,42.5,29.42,ENE,75,3.5,3.5,84,0.00,OVC,,0.00,253.0,WeatherDisplay:10.37,2013-05-13 18:31:00,
2013-05-13 10:36:00,47.1,42.5,29.42,East,92,1.2,0.0,84,0.00,OVC,,0.00,223.0,WeatherDisplay:10.37,2013-05-13 18:36:00,
2013-05-13 10:41:00,47.2,42.0,29.42,East,92,2.3,2.3,82,0.00,OVC,,0.00,200.0,WeatherDisplay:10.37,2013-05-13 18:41:00,
2013-05-13 10:46:00,47.2,42.0,29.42,East,92,2.3,2.3,82,0.00,OVC,,0.00,149.0,WeatherDisplay:10.37,2013-05-13 18:46:00,
2013-05-13 10:51:00,47.1,41.6,29.42,East,85,2.3,2.3,81,0.00,OVC,,0.00,171.0,WeatherDisplay:10.37,2013-05-13 18:51:00,
2013-05-13 10:56:00,47.0,41.8,29.43,NNE,21,3.5,3.5,82,0.00,OVC,,0.00,192.0,WeatherDisplay:10.37,2013-05-13 18:56:00,
2013-05-13 11:01:00,47.1,41.6,29.43,ENE,71,5.0,5.0,81,0.00,OVC,,0.00,230.0,WeatherDisplay:10.37,2013-05-13 19:01:00,
2013-05-13 11:06:00,47.4,41.2,29.43,NNE,23,4.6,4.6,79,0.00,OVC,,0.00,269.0,WeatherDisplay:10.37,2013-05-13 19:06:00,
2013-05-13 11:11:00,47.5,41.3,29.43,ENE,78,2.3,2.3,79,0.00,OVC,,0.00,243.0,WeatherDisplay:10.37,2013-05-13 19:11:00,
2013-05-13 11:16:00,47.7,41.8,29.43,ENE,76,3.5,3.5,80,0.00,OVC,,0.00,169.0,WeatherDisplay:10.37,2013-05-13 19:16:00,
2013-05-13 11:21:00,47.9,42.0,29.43,East,82,7.0,7.0,80,0.00,OVC,,0.00,195.0,WeatherDisplay:10.37,2013-05-13 19:21:00,
2013-05-13 11:26:00,48.0,42.1,29.43,NE,47,6.9,6.9,80,0.00,OVC,,0.00,213.0,WeatherDisplay:10.37,2013-05-13 19:26:00,
2013-05-13 11:31:00,47.9,42.0,29.42,ESE,123,4.6,4.6,80,0.00,OVC,,0.00,227.0,WeatherDisplay:10.37,2013-05-13 19:31:00,
2013-05-13 11:36:00,47.7,41.5,29.43,NE,36,3.5,3.5,79,0.00,OVC,,0.00,251.0,WeatherDisplay:10.37,2013-05-13 19:36:00,
2013-05-13 11:41:00,47.7,39.5,29.43,ESE,108,9.2,9.2,73,0.00,OVC,,0.00,255.0,WeatherDisplay:10.37,2013-05-13 19:41:00,
2013-05-13 11:46:00,47.7,38.4,29.43,ESE,122,5.8,5.8,70,0.00,OVC,,0.00,253.0,WeatherDisplay:10.37,2013-05-13 19:46:00,
2013-05-13 11:51:00,47.8,39.6,29.43,East,92,5.0,5.0,73,0.00,OVC,,0.00,264.0,WeatherDisplay:10.37,2013-05-13 19:51:00,
2013-05-13 11:56:00,48.0,37.6,29.43,ESE,107,8.1,8.1,67,0.00,OVC,,0.00,283.0,WeatherDisplay:10.37,2013-05-13 19:56:00,
2013-05-13 12:01:00,48.2,36.2,29.43,NE,41,7.0,7.0,63,0.00,OVC,,0.00,353.0,WeatherDisplay:10.37,2013-05-13 20:01:00,
2013-05-13 12:06:00,48.6,35.7,29.43,East,82,6.0,6.0,61,0.00,OVC,,0.00,425.0,WeatherDisplay:10.37,2013-05-13 20:06:00,
2013-05-13 12:11:00,49.0,35.3,29.43,ENE,66,4.0,4.3,59,0.00,OVC,,0.00,390.0,WeatherDisplay:10.37,2013-05-13 20:11:00,
2013-05-13 12:16:00,49.4,34.3,29.42,ENE,65,6.9,6.9,56,0.00,OVC,,0.00,410.0,WeatherDisplay:10.37,2013-05-13 20:16:00,
2013-05-13 12:21:00,49.6,34.5,29.43,ENE,63,4.0,4.0,56,0.00,OVC,,0.00,313.0,WeatherDisplay:10.37,2013-05-13 20:21:00,
2013-05-13 12:27:00,49.7,34.2,29.43,NE,42,6.0,6.0,55,0.00,OVC,,0.00,306.0,WeatherDisplay:10.37,2013-05-13 20:27:00,
2013-05-13 12:32:00,49.7,33.7,29.43,East,92,5.0,5.0,54,0.00,OVC,,0.00,369.0,WeatherDisplay:10.37,2013-05-13 20:32:00,
2013-05-13 12:37:00,49.7,34.2,29.43,ENE,67,6.9,6.9,55,0.00,OVC,,0.00,366.0,WeatherDisplay:10.37,2013-05-13 20:37:00,
2013-05-13 12:42:00,49.8,33.3,29.43,ENE,66,6.9,6.9,53,0.00,OVC,,0.00,329.0,WeatherDisplay:10.37,2013-05-13 20:42:00,
2013-05-13 12:47:00,49.9,33.9,29.43,NNE,26,4.6,4.6,54,0.00,OVC,,0.00,378.0,WeatherDisplay:10.37,2013-05-13 20:47:00,
2013-05-13 12:52:00,49.9,34.4,29.43,NE,45,6.9,6.9,55,0.00,OVC,,0.00,425.0,WeatherDisplay:10.37,2013-05-13 20:52:00,
2013-05-13 12:57:00,50.1,33.6,29.43,East,88,3.5,3.5,53,0.00,OVC,,0.00,454.0,WeatherDisplay:10.37,2013-05-13 20:57:00,
2013-05-13 13:02:00,50.3,33.8,29.43,ESE,116,3.5,3.5,53,0.00,OVC,,0.00,403.0,WeatherDisplay:10.37,2013-05-13 21:02:00,
2013-05-13 13:07:00,50.3,34.7,29.42,ENE,61,4.6,4.6,55,0.00,OVC,,0.00,369.0,WeatherDisplay:10.37,2013-05-13 21:07:00,
2013-05-13 13:12:00,50.6,35.5,29.43,NE,55,6.9,6.9,56,0.00,OVC,,0.00,299.0,WeatherDisplay:10.37,2013-05-13 21:12:00,
2013-05-13 13:17:00,50.5,35.8,29.43,NE,42,5.8,5.8,57,0.00,OVC,,0.00,225.0,WeatherDisplay:10.37,2013-05-13 21:17:00,
2013-05-13 13:22:00,50.3,35.2,29.43,ENE,67,9.2,9.2,56,0.00,OVC,,0.00,186.0,WeatherDisplay:10.37,2013-05-13 21:22:00,
2013-05-13 13:27:00,50.1,35.9,29.43,NE,36,5.8,5.8,58,0.00,OVC,,0.00,179.0,WeatherDisplay:10.37,2013-05-13 21:27:00,
2013-05-13 13:32:00,49.8,36.5,29.43,NE,55,3.5,3.5,60,0.00,OVC,,0.00,163.0,WeatherDisplay:10.37,2013-05-13 21:32:00,
2013-05-13 13:37:00,49.6,36.7,29.43,North,5,9.2,9.2,61,0.00,OVC,,0.00,165.0,WeatherDisplay:10.37,2013-05-13 21:37:00,
2013-05-13 13:42:00,49.1,37.0,29.43,NNE,32,10.4,10.4,63,0.00,OVC,,0.00,174.0,WeatherDisplay:10.37,2013-05-13 21:42:00,
2013-05-13 13:47:00,48.6,37.7,29.43,NNW,327,11.5,11.5,66,0.00,OVC,,0.00,172.0,WeatherDisplay:10.37,2013-05-13 21:47:00,
2013-05-13 13:52:00,47.7,38.8,29.43,NNW,342,9.2,9.2,71,0.00,OVC,,0.00,179.0,WeatherDisplay:10.37,2013-05-13 21:52:00,
2013-05-13 13:57:00,46.8,38.9,29.43,NE,36,5.8,5.8,74,0.00,OVC,,0.00,181.0,WeatherDisplay:10.37,2013-05-13 21:57:00,
2013-05-13 14:02:00,46.3,38.8,29.43,North,360,8.1,8.1,75,0.00,OVC,,0.00,186.0,WeatherDisplay:10.37,2013-05-13 22:02:00,
2013-05-13 14:07:00,46.0,39.5,29.43,North,5,4.6,4.6,78,0.00,OVC,,0.00,200.0,WeatherDisplay:10.37,2013-05-13 22:07:00,
2013-05-13 14:12:00,45.6,39.8,29.43,North,10,5.8,5.8,80,0.00,OVC,,0.00,209.0,WeatherDisplay:10.37,2013-05-13 22:12:00,
2013-05-13 14:17:00,45.5,40.0,29.44,North,355,3.5,3.5,81,0.00,OVC,,0.00,246.0,WeatherDisplay:10.37,2013-05-13 22:17:00,
2013-05-13 14:22:00,45.7,39.9,29.44,NNW,328,3.5,3.5,80,0.00,OVC,,0.00,265.0,WeatherDisplay:10.37,2013-05-13 22:22:00,
2013-05-13 14:27:00,45.9,40.4,29.44,NE,45,8.1,8.1,81,0.00,OVC,,0.00,297.0,WeatherDisplay:10.37,2013-05-13 22:27:00,
2013-05-13 14:32:00,46.2,40.4,29.44,NNE,27,6.0,6.0,80,0.00,OVC,,0.00,334.0,WeatherDisplay:10.37,2013-05-13 22:32:00,
2013-05-13 14:37:00,46.5,41.0,29.44,NNE,29,3.5,3.5,81,0.00,OVC,,0.00,367.0,WeatherDisplay:10.37,2013-05-13 22:37:00,
2013-05-13 14:42:00,46.7,40.2,29.44,ENE,74,4.6,4.6,78,0.00,OVC,,0.00,434.0,WeatherDisplay:10.37,2013-05-13 22:42:00,
2013-05-13 14:47:00,47.0,40.5,29.43,East,101,3.5,3.5,78,0.00,OVC,,0.00,499.0,WeatherDisplay:10.37,2013-05-13 22:47:00,
2013-05-13 14:52:00,47.4,40.2,29.44,NNE,17,4.6,4.6,76,0.00,OVC,,0.00,485.0,WeatherDisplay:10.37,2013-05-13 22:52:00,
2013-05-13 14:57:00,47.6,41.1,29.43,East,90,3.5,3.5,78,0.00,OVC,,0.00,425.0,WeatherDisplay:10.37,2013-05-13 22:57:00,
2013-05-13 15:02:00,47.8,41.3,29.43,NNE,28,3.5,3.5,78,0.01,-RA,,0.01,362.0,WeatherDisplay:10.37,2013-05-13 23:02:00,
2013-05-13 15:07:00,47.8,40.6,29.43,ENE,66,2.3,2.3,76,0.02,-RA,,0.02,338.0,WeatherDisplay:10.37,2013-05-13 23:07:00,
2013-05-13 15:12:00,47.8,41.6,29.43,ESE,107,3.5,3.5,79,0.02,-RA,,0.02,390.0,WeatherDisplay:10.37,2013-05-13 23:12:00,
2013-05-13 15:17:00,47.8,41.3,29.43,ESE,107,2.3,2.3,78,0.02,-RA,,0.02,420.0,WeatherDisplay:10.37,2013-05-13 23:17:00,
2013-05-13 15:22:00,47.8,41.3,29.43,ESE,107,2.3,0.0,78,0.02,-RA,,0.02,287.0,WeatherDisplay:10.37,2013-05-13 23:22:00,
2013-05-13 15:27:00,47.8,40.9,29.43,ESE,107,0.0,0.0,77,0.02,-RA,,0.02,255.0,WeatherDisplay:10.37,2013-05-13 23:27:00,
2013-05-13 15:32:00,47.8,41.3,29.43,SSE,147,2.3,2.3,78,0.02,-RA,,0.02,241.0,WeatherDisplay:10.37,2013-05-13 23:32:00,
2013-05-13 15:37:00,47.7,40.5,29.43,SSW,202,1.2,1.2,76,0.02,-RA,,0.02,251.0,WeatherDisplay:10.37,2013-05-13 23:37:00,
2013-05-13 15:42:00,47.7,40.8,29.42,SSW,202,1.2,1.2,77,0.02,-RA,,0.02,287.0,WeatherDisplay:10.37,2013-05-13 23:42:00,
2013-05-13 15:47:00,47.9,41.4,29.43,SSW,202,2.3,2.3,78,0.02,-RA,,0.02,322.0,WeatherDisplay:10.37,2013-05-13 23:47:00,
2013-05-13 15:52:00,48.0,40.1,29.43,South,187,3.5,3.5,74,0.02,-RA,,0.02,397.0,WeatherDisplay:10.37,2013-05-13 23:52:00,
2013-05-13 15:57:00,48.2,40.6,29.42,ESE,123,2.3,2.3,75,0.02,-RA,,0.02,468.0,WeatherDisplay:10.37,2013-05-13 23:57:00,
2013-05-13 16:02:00,48.5,39.2,29.42,ESE,123,2.3,2.3,70,0.02,RA,,0.03,329.0,WeatherDisplay:10.37,2013-05-14 00:02:00,
2013-05-13 16:07:00,48.6,39.3,29.43,ESE,111,3.5,3.5,70,0.01,RA,,0.03,392.0,WeatherDisplay:10.37,2013-05-14 00:07:00,
2013-05-13 16:12:00,48.9,38.4,29.43,ESE,111,2.3,2.3,67,0.01,OVC,,0.03,619.0,WeatherDisplay:10.37,2013-05-14 00:12:00,
2013-05-13 16:17:00,49.2,39.5,29.43,ESE,108,3.5,3.5,69,0.01,OVC,,0.03,424.0,WeatherDisplay:10.37,2013-05-14 00:17:00,
2013-05-13 16:22:00,49.5,39.0,29.42,West,261,2.3,2.3,67,0.01,OVC,,0.03,408.0,WeatherDisplay:10.37,2013-05-14 00:22:00,
2013-05-13 16:27:00,49.7,39.6,29.42,WSW,240,2.3,2.3,68,0.01,OVC,,0.03,392.0,WeatherDisplay:10.37,2013-05-14 00:27:00,
2013-05-13 16:32:00,49.8,40.0,29.42,West,263,3.5,3.5,69,0.01,OVC,,0.03,325.0,WeatherDisplay:10.37,2013-05-14 00:32:00,
2013-05-13 16:37:00,49.7,39.9,29.42,NW,305,3.5,3.5,69,0.01,OVC,,0.03,294.0,WeatherDisplay:10.37,2013-05-14 00:37:00,
2013-05-13 16:42:00,49.7,39.9,29.42,NW,322,3.5,3.5,69,0.01,OVC,,0.03,355.0,WeatherDisplay:10.37,2013-05-14 00:42:00,
2013-05-13 16:47:00,49.5,39.7,29.42,WNW,298,3.5,3.5,69,0.01,OVC,,0.03,348.0,WeatherDisplay:10.37,2013-05-14 00:47:00,
2013-05-13 16:52:00,49.2,39.5,29.42,North,5,3.5,3.5,69,0.01,OVC,,0.03,355.0,WeatherDisplay:10.37,2013-05-14 00:52:00,
2013-05-13 16:57:00,49.1,39.4,29.42,West,274,3.5,3.5,69,0.01,OVC,,0.03,431.0,WeatherDisplay:10.37,2013-05-14 00:57:00,
2013-05-13 17:02:00,49.1,39.0,29.42,North,5,3.5,3.5,68,0.00,OVC,,0.03,415.0,WeatherDisplay:10.37,2013-05-14 01:02:00,
2013-05-13 17:07:00,49.4,39.7,29.42,NNW,331,2.3,2.3,69,0.00,OVC,,0.03,343.0,WeatherDisplay:10.37,2013-05-14 01:07:00,
2013-05-13 17:12:00,49.5,39.7,29.42,NW,311,2.0,2.0,69,0.00,OVC,,0.03,292.0,WeatherDisplay:10.37,2013-05-14 01:12:00,
2013-05-13 17:17:00,49.6,39.1,29.42,WSW,245,5.0,5.0,67,0.00,OVC,,0.03,288.0,WeatherDisplay:10.37,2013-05-14 01:17:00,
2013-05-13 17:22:00,49.7,39.9,29.42,NW,307,3.5,3.5,69,0.00,OVC,,0.03,346.0,WeatherDisplay:10.37,2013-05-14 01:22:00,
2013-05-13 17:27:00,49.7,39.9,29.42,NW,325,4.6,4.6,69,0.00,OVC,,0.03,445.0,WeatherDisplay:10.37,2013-05-14 01:27:00,
2013-05-13 17:32:00,49.7,40.3,29.42,WNW,298,3.5,3.5,70,0.00,OVC,,0.03,362.0,WeatherDisplay:10.37,2013-05-14 01:32:00,
2013-05-13 17:37:00,49.8,40.4,29.42,NW,309,3.5,3.5,70,0.00,OVC,,0.03,294.0,WeatherDisplay:10.37,2013-05-14 01:37:00,
2013-05-13 17:42:00,49.7,39.2,29.42,WNW,302,3.0,3.0,67,0.00,OVC,,0.03,260.0,WeatherDisplay:10.37,2013-05-14 01:42:00,
2013-05-13 17:47:00,49.4,40.0,29.42,WNW,302,2.3,2.3,70,0.00,OVC,,0.03,243.0,WeatherDisplay:10.37,2013-05-14 01:47:00,
2013-05-13 17:52:00,49.1,39.7,29.42,WNW,301,3.5,3.5,70,0.00,OVC,,0.03,251.0,WeatherDisplay:10.37,2013-05-14 01:52:00,
2013-05-13 17:57:00,48.7,39.7,29.42,WNW,301,2.3,2.3,71,0.00,OVC,,0.03,213.0,WeatherDisplay:10.37,2013-05-14 01:57:00,
2013-05-13 18:02:00,48.5,39.9,29.42,North,351,2.3,2.3,72,0.00,OVC,,0.03,209.0,WeatherDisplay:10.37,2013-05-14 02:02:00,
2013-05-13 18:07:00,48.1,38.8,29.42,NNW,347,3.5,3.5,70,0.00,OVC,,0.03,206.0,WeatherDisplay:10.37,2013-05-14 02:07:00,
2013-05-13 18:12:00,47.9,38.6,29.42,NNW,329,4.6,4.6,70,0.00,OVC,,0.03,183.0,WeatherDisplay:10.37,2013-05-14 02:12:00,
2013-05-13 18:17:00,47.6,38.3,29.42,NNW,332,4.0,4.0,70,0.00,OVC,,0.03,190.0,WeatherDisplay:10.37,2013-05-14 02:17:00,
2013-05-13 18:22:00,47.5,38.2,29.42,NW,321,3.5,3.5,70,0.00,OVC,,0.03,195.0,WeatherDisplay:10.37,2013-05-14 02:22:00,
2013-05-13 18:27:00,47.3,38.4,29.42,NNW,328,3.5,3.5,71,0.00,OVC,,0.03,193.0,WeatherDisplay:10.37,2013-05-14 02:27:00,
2013-05-13 18:32:00,47.1,38.2,29.42,NNW,348,3.5,3.5,71,0.00,OVC,,0.03,183.0,WeatherDisplay:10.37,2013-05-14 02:32:00,
2013-05-13 18:37:00,46.9,38.0,29.42,North,9,4.6,4.6,71,0.00,OVC,,0.03,185.0,WeatherDisplay:10.37,2013-05-14 02:37:00,
2013-05-13 18:42:00,46.9,38.3,29.42,North,9,1.2,1.2,72,0.00,OVC,,0.03,190.0,WeatherDisplay:10.37,2013-05-14 02:42:00,
2013-05-13 18:47:00,47.1,38.5,29.42,NNW,331,3.0,3.0,72,0.00,OVC,,0.03,216.0,WeatherDisplay:10.37,2013-05-14 02:47:00,
2013-05-13 18:52:00,47.2,38.3,29.42,North,355,3.5,3.5,71,0.00,OVC,,0.03,236.0,WeatherDisplay:10.37,2013-05-14 02:52:00,
2013-05-13 18:57:00,47.3,39.4,29.42,NW,309,2.3,2.3,74,0.00,OVC,,0.03,225.0,WeatherDisplay:10.37,2013-05-14 02:57:00,
2013-05-13 19:02:00,47.3,39.1,29.42,NNW,346,3.5,3.5,73,0.00,OVC,,0.03,183.0,WeatherDisplay:10.37,2013-05-14 03:02:00,
2013-05-13 19:07:00,47.1,38.9,29.42,NNW,331,3.5,3.5,73,0.00,OVC,,0.03,155.0,WeatherDisplay:10.37,2013-05-14 03:07:00,
2013-05-13 19:12:00,46.9,38.3,29.42,NNW,345,3.5,3.5,72,0.00,OVC,,0.03,142.0,WeatherDisplay:10.37,2013-05-14 03:12:00,
2013-05-13 19:17:00,46.7,38.1,29.42,NNW,338,4.6,4.6,72,0.00,OVC,,0.03,130.0,WeatherDisplay:10.37,2013-05-14 03:17:00,
2013-05-13 19:22:00,46.4,38.2,29.42,NNW,344,3.5,3.5,73,0.00,OVC,,0.03,121.0,WeatherDisplay:10.37,2013-05-14 03:22:00,
2013-05-13 19:27:00,46.3,38.1,29.42,NNW,336,3.5,3.5,73,0.00,OVC,,0.03,134.0,WeatherDisplay:10.37,2013-05-14 03:27:00,
2013-05-13 19:32:00,46.3,38.5,29.42,NNW,336,2.0,2.0,74,0.00,OVC,,0.03,167.0,WeatherDisplay:10.37,2013-05-14 03:32:00,
2013-05-13 19:37:00,46.3,38.5,29.42,North,5,3.5,3.5,74,0.00,OVC,,0.03,185.0,WeatherDisplay:10.37,2013-05-14 03:37:00,
2013-05-13 19:42:00,46.3,38.1,29.42,NNW,329,4.0,4.0,73,0.00,OVC,,0.03,181.0,WeatherDisplay:10.37,2013-05-14 03:42:00,
2013-05-13 19:47:00,46.1,37.6,29.42,NNW,332,3.5,3.5,72,0.00,OVC,,0.03,188.0,WeatherDisplay:10.37,2013-05-14 03:47:00,
2013-05-13 19:52:00,46.0,38.2,29.42,NNW,332,1.2,1.2,74,0.00,OVC,,0.03,195.0,WeatherDisplay:10.37,2013-05-14 03:52:00,
2013-05-13 19:57:00,46.1,38.3,29.42,NNW,332,1.2,1.2,74,0.00,OVC,,0.03,197.0,WeatherDisplay:10.37,2013-05-14 03:57:00,
2013-05-13 20:01:00,46.3,38.1,29.42,NNW,332,2.3,2.3,73,0.00,OVC,,0.03,200.0,WeatherDisplay:10.37,2013-05-14 04:01:00,
2013-05-13 20:06:00,46.6,38.1,29.42,NNW,332,2.3,2.3,72,0.00,OVC,,0.03,195.0,WeatherDisplay:10.37,2013-05-14 04:06:00,
2013-05-13 20:11:00,46.9,38.0,29.42,NNW,332,1.2,1.2,71,0.00,OVC,,0.03,183.0,WeatherDisplay:10.37,2013-05-14 04:11:00,
2013-05-13 20:16:00,47.3,38.4,29.42,NNW,332,1.2,1.2,71,0.00,OVC,,0.03,155.0,WeatherDisplay:10.37,2013-05-14 04:16:00,
2013-05-13 20:21:00,47.6,39.0,29.42,NNW,332,1.2,1.2,72,0.00,OVC,,0.03,116.0,WeatherDisplay:10.37,2013-05-14 04:21:00,
2013-05-13 20:26:00,47.5,35.1,29.42,NE,36,4.6,4.6,62,0.00,OVC,,0.03,107.0,WeatherDisplay:10.37,2013-05-14 04:26:00,
2013-05-13 20:31:00,47.6,30.8,29.42,NE,45,4.6,4.6,52,0.00,OVC,,0.03,107.0,WeatherDisplay:10.37,2013-05-14 04:31:00,
2013-05-13 20:36:00,48.1,34.9,29.42,NE,42,2.3,2.3,60,0.00,OVC,,0.03,100.0,WeatherDisplay:10.37,2013-05-14 04:36:00,
2013-05-13 20:41:00,47.9,37.5,29.43,North,5,4.0,4.0,67,0.00,OVC,,0.03,91.0,WeatherDisplay:10.37,2013-05-14 04:41:00,
2013-05-13 20:46:00,47.6,36.0,29.43,North,349,3.5,3.5,64,0.00,OVC,,0.03,76.0,WeatherDisplay:10.37,2013-05-14 04:46:00,
2013-05-13 20:51:00,47.4,34.6,29.42,North,9,2.3,2.3,61,0.00,OVC,,0.03,72.0,WeatherDisplay:10.37,2013-05-14 04:51:00,
2013-05-13 20:56:00,47.4,31.6,29.43,NE,38,5.8,5.8,54,0.00,OVC,,0.03,63.0,WeatherDisplay:10.37,2013-05-14 04:56:00,
2013-05-13 21:01:00,47.6,29.4,29.42,NNE,17,2.3,2.3,49,0.00,OVC,,0.03,56.0,WeatherDisplay:10.37,2013-05-14 05:01:00,
2013-05-13 21:06:00,47.7,29.5,29.43,NNE,30,3.5,3.5,49,0.00,OVC,,0.03,56.0,WeatherDisplay:10.37,2013-05-14 05:06:00,
2013-05-13 21:11:00,47.8,29.5,29.43,North,5,3.5,3.5,49,0.00,OVC,,0.03,67.0,WeatherDisplay:10.37,2013-05-14 05:11:00,
2013-05-13 21:16:00,47.9,30.6,29.43,NE,39,3.5,3.5,51,0.00,OVC,,0.03,76.0,WeatherDisplay:10.37,2013-05-14 05:16:00,
2013-05-13 21:21:00,47.9,31.6,29.43,NNW,334,3.5,3.5,53,0.00,OVC,,0.03,81.0,WeatherDisplay:10.37,2013-05-14 05:21:00,
2013-05-13 21:26:00,47.9,32.0,29.43,NNE,13,3.5,3.5,54,0.00,OVC,,0.03,72.0,WeatherDisplay:10.37,2013-05-14 05:26:00,
2013-05-13 21:31:00,47.8,31.0,29.43,NE,50,2.3,2.3,52,0.00,OVC,,0.03,49.0,WeatherDisplay:10.37,2013-05-14 05:31:00,
2013-05-13 21:36:00,47.7,29.5,29.43,NE,44,5.8,5.8,49,0.00,OVC,,0.03,39.0,WeatherDisplay:10.37,2013-05-14 05:36:00,
2013-05-13 21:41:00,47.5,29.3,29.43,NNE,30,3.5,3.5,49,0.00,OVC,,0.03,30.0,WeatherDisplay:10.37,2013-05-14 05:41:00,
2013-05-13 21:46:00,47.2,29.0,29.44,NNE,15,3.5,3.5,49,0.00,OVC,,0.03,21.0,WeatherDisplay:10.37,2013-05-14 05:46:00,
2013-05-13 21:51:00,47.0,27.8,29.44,NNE,12,3.5,3.5,47,0.00,OVC,,0.03,18.0,WeatherDisplay:10.37,2013-05-14 05:51:00,
2013-05-13 21:56:00,46.7,27.0,29.44,NNE,22,2.3,2.3,46,0.00,OVC,,0.03,16.0,WeatherDisplay:10.37,2013-05-14 05:56:00,
2013-05-13 22:01:00,46.3,26.6,29.44,NE,54,3.5,3.5,46,0.00,OVC,,0.03,14.0,WeatherDisplay:10.37,2013-05-14 06:01:00,
2013-05-13 22:06:00,45.9,26.8,29.44,NE,37,3.5,3.5,47,0.00,OVC,,0.03,11.0,WeatherDisplay:10.37,2013-05-14 06:06:00,
2013-05-13 22:11:00,45.4,25.3,29.44,NE,35,3.5,3.5,45,0.00,OVC,,0.03,7.0,WeatherDisplay:10.37,2013-05-14 06:11:00,
2013-05-13 22:16:00,45.0,25.4,29.44,NE,44,4.6,4.6,46,0.00,OVC,,0.03,5.0,WeatherDisplay:10.37,2013-05-14 06:16:00,
2013-05-13 22:21:00,44.6,24.5,29.45,ENE,60,4.6,4.6,45,0.00,OVC,,0.03,5.0,WeatherDisplay:10.37,2013-05-14 06:21:00,
2013-05-13 22:26:00,44.3,24.8,29.45,NE,47,3.5,3.5,46,0.00,OVC,,0.03,5.0,WeatherDisplay:10.37,2013-05-14 06:26:00,
2013-05-13 22:31:00,44.1,23.6,29.45,NE,40,3.0,3.0,44,0.00,OVC,,0.03,0.0,WeatherDisplay:10.37,2013-05-14 06:31:00,
2013-05-13 22:36:00,43.8,23.8,29.45,NE,43,3.5,3.5,45,0.00,OVC,,0.03,0.0,WeatherDisplay:10.37,2013-05-14 06:36:00,
2013-05-13 22:41:00,43.6,24.7,29.45,ENE,71,3.5,3.5,47,0.00,OVC,,0.03,0.0,WeatherDisplay:10.37,2013-05-14 06:41:00,
2013-05-13 22:46:00,43.4,24.0,29.45,NE,45,3.5,3.5,46,0.00,OVC,,0.03,0.0,WeatherDisplay:10.37,2013-05-14 06:46:00,
2013-05-13 22:51:00,43.2,23.8,29.45,North,350,3.5,3.5,46,0.00,OVC,,0.03,0.0,WeatherDisplay:10.37,2013-05-14 06:51:00,
2013-05-13 22:56:00,43.0,23.1,29.46,NNE,30,2.3,2.3,45,0.00,OVC,,0.03,0.0,WeatherDisplay:10.37,2013-05-14 06:56:00,
2013-05-13 23:01:00,42.9,22.5,29.46,East,89,3.5,3.5,44,0.00,OVC,,0.03,0.0,WeatherDisplay:10.37,2013-05-14 07:01:00,
2013-05-13 23:06:00,42.8,22.4,29.46,ENE,72,6.9,6.9,44,0.00,OVC,,0.03,0.0,WeatherDisplay:10.37,2013-05-14 07:06:00,
2013-05-13 23:11:00,42.7,22.3,29.46,ENE,72,2.3,2.3,44,0.00,OVC,,0.03,0.0,WeatherDisplay:10.37,2013-05-14 07:11:00,
2013-05-13 23:16:00,42.7,22.8,29.46,East,80,4.6,4.6,45,0.00,OVC,,0.03,0.0,WeatherDisplay:10.37,2013-05-14 07:16:00,
2013-05-13 23:21:00,42.5,23.7,29.46,NE,42,2.3,2.3,47,0.00,OVC,,0.03,0.0,WeatherDisplay:10.37,2013-05-14 07:21:00,
2013-05-13 23:27:00,42.4,23.6,29.47,NE,51,2.0,2.0,47,0.00,OVC,,0.03,0.0,WeatherDisplay:10.37,2013-05-14 07:27:00,
2013-05-13 23:32:00,42.2,23.4,29.47,NE,51,1.2,1.2,47,0.00,OVC,,0.03,0.0,WeatherDisplay:10.37,2013-05-14 07:32:00,
2013-05-13 23:37:00,42.0,23.7,29.47,NE,49,0.0,0.0,48,0.00,OVC,,0.03,0.0,WeatherDisplay:10.37,2013-05-14 07:37:00,
2013-05-13 23:42:00,41.6,22.8,29.47,NNW,345,3.5,3.5,47,0.00,OVC,,0.03,0.0,WeatherDisplay:10.37,2013-05-14 07:42:00,
2013-05-13 23:47:00,41.3,22.6,29.47,NNW,345,1.2,0.0,47,0.00,OVC,,0.03,0.0,WeatherDisplay:10.37,2013-05-14 07:47:00,
2013-05-13 23:52:00,41.0,24.2,29.47,NNW,345,0.0,0.0,51,0.00,OVC,,0.03,0.0,WeatherDisplay:10.37,2013-05-14 07:52:00,
2013-05-13 23:57:00,40.5,23.8,29.47,NNW,345,0.0,0.0,51,0.00,OVC,,0.03,0.0,WeatherDisplay:10.37,2013-05-14 07:57:00,